W5MAI Weather Reports


Display with metric or nautical units.
time (UTC)temp
F
wind
direction
speed
MPH
gust
MPH
rain 1hr
in
rain 24hr
in
rain mn
in
humidity
%
barometer
mb
20220627062339 79 186 0.0 2.0 0.00 0.00 0.00 63 1022.4
20220627061323 80 221 0.0 0.0 0.00 0.00 0.00 61 1022.3
20220627060337 81 221 0.0 0.0 0.00 0.00 0.00 60 1022.2
20220627055323 81 221 0.0 0.0 0.00 0.00 0.00 58 1022.3
20220627054332 82 221 0.0 1.0 0.00 0.00 0.00 57 1022.1
20220627053350 83 221 1.0 2.0 0.00 0.00 0.00 55 1022.0
20220627052337 84 180 0.0 3.0 0.00 0.00 0.00 55 1022.0
20220627051342 84 240 2.0 7.0 0.00 0.00 0.00 54 1021.8
20220627050340 84 143 3.0 8.0 0.00 0.00 0.00 53 1021.7
20220627045339 85 165 6.0 10.0 0.00 0.00 0.00 54 1021.5
20220627044416 85 155 5.0 10.0 0.00 0.00 0.00 54 1021.3
20220627043327 85 187 3.0 8.0 0.00 0.00 0.00 56 1021.4
20220627042410 85 184 4.0 9.0 0.00 0.00 0.00 57 1021.3
20220627041417 86 186 6.0 12.0 0.00 0.00 0.00 57 1021.0
20220627040330 86 161 4.0 10.0 0.00 0.00 0.00 57 1020.8
20220627035404 86 174 6.0 10.0 0.00 0.00 0.00 57 1020.7
20220627034331 86 140 5.0 9.0 0.00 0.00 0.00 57 1020.5
20220627030358 87 151 5.0 8.0 0.00 0.00 0.00 48 1020.1
20220627025420 84 130 5.0 10.0 0.00 0.00 0.00 46 1019.7
20220627024353 84 132 0.0 0.0 0.00 0.00 0.00 45 1019.4
20220627023417 85 132 0.0 0.0 0.00 0.00 0.00 43 1019.3
20220627022335 87 132 0.0 0.0 0.00 0.00 0.00 41 1019.1
20220627021359 88 132 0.0 0.0 0.00 0.00 0.00 39 1019.0
20220627020327 90 132 0.0 0.0 0.00 0.00 0.00 37 1018.9
20220627015403 91 132 0.0 1.0 0.00 0.00 0.00 35 1018.8
20220627014408 92 132 1.0 3.0 0.00 0.00 0.00 33 1018.6
20220627013330 93 128 1.0 5.0 0.00 0.00 0.00 32 1018.5
20220627012359 93 108 3.0 9.0 0.00 0.00 0.00 31 1018.4
20220627011331 94 126 2.0 7.0 0.00 0.00 0.00 31 1018.5
20220627004346 95 138 3.0 9.0 0.00 0.00 0.00 30 1018.3
20220627003402 95 74 3.0 10.0 0.00 0.00 0.00 30 1018.2
20220627002341 96 66 6.0 10.0 0.00 0.00 0.00 30 1018.3
20220627001405 96 81 7.0 10.0 0.00 0.00 0.00 30 1018.1
20220627000328 96 153 3.0 9.0 0.00 0.00 0.00 29 1018.2
20220626234338 97 104 5.0 9.0 0.00 0.00 0.00 28 1018.0
20220626233408 97 98 4.0 12.0 0.00 0.00 0.00 28 1018.1
20220626232339 97 51 5.0 11.0 0.00 0.00 0.00 28 1018.0
20220626230329 97 196 3.0 12.0 0.00 0.00 0.00 28 1018.3
20220626225407 97 38 6.0 14.0 0.00 0.00 0.00 27 1018.3
20220626224324 98 50 7.0 13.0 0.00 0.00 0.00 26 1018.5
20220626222328 98 84 6.0 11.0 0.00 0.00 0.00 25 1018.5
20220626220335 97 163 9.0 16.0 0.00 0.00 0.00 26 1018.7
20220626215402 97 97 8.0 12.0 0.00 0.00 0.00 27 1018.8
20220626214335 97 60 5.0 14.0 0.00 0.00 0.00 27 1018.8
20220626212339 97 173 8.0 15.0 0.00 0.00 0.00 27 1019.1
20220626211402 97 104 4.0 14.0 0.00 0.00 0.00 27 1019.2
20220626210413 97 232 3.0 9.0 0.00 0.00 0.00 27 1019.1
20220626204341 97 57 5.0 16.0 0.00 0.00 0.00 27 1019.4
20220626203417 98 143 3.0 10.0 0.00 0.00 0.00 26 1019.4
20220626202341 97 53 5.0 11.0 0.00 0.00 0.00 27 1019.6
20220626201407 97 119 2.0 11.0 0.00 0.00 0.00 29 1019.6
20220626200324 96 115 7.0 13.0 0.00 0.00 0.00 28 1019.8
20220626193341 96 149 4.0 14.0 0.00 0.00 0.00 30 1020.2
20220626192411 95 60 3.0 9.0 0.00 0.00 0.00 34 1020.2
20220626191328 96 136 7.0 14.0 0.00 0.00 0.00 34 1020.3
20220626190410 95 25 3.0 14.0 0.00 0.00 0.00 35 1020.5
20220626185323 95 119 6.0 8.0 0.00 0.00 0.00 32 1020.6
20220626184349 95 122 2.0 7.0 0.00 0.00 0.00 33 1020.5
20220626183420 94 254 1.0 8.0 0.00 0.00 0.00 35 1020.7
20220626181353 93 147 1.0 6.0 0.00 0.00 0.00 37 1021.0
20220626180420 93 305 2.0 5.0 0.00 0.00 0.00 37 1021.2
20220626175342 93 96 3.0 8.0 0.00 0.00 0.00 41 1021.4
20220626174402 92 168 2.0 5.0 0.00 0.00 0.00 41 1021.4
20220626173331 91 205 3.0 6.0 0.00 0.00 0.00 40 1021.5
20220626172401 91 335 2.0 10.0 0.00 0.00 0.00 42 1021.7
20220626171326 90 271 2.0 7.0 0.00 0.00 0.00 46 1021.8
20220626170344 90 192 3.0 8.0 0.00 0.00 0.00 47 1021.8
20220626165418 90 236 2.0 7.0 0.00 0.00 0.00 46 1021.9
20220626164325 90 80 1.0 8.0 0.00 0.00 0.00 47 1021.9
20220626162340 88 5 2.0 6.0 0.00 0.00 0.00 52 1021.9
20220626161414 88 218 5.0 9.0 0.00 0.00 0.00 54 1021.8
20220626160331 87 219 2.0 8.0 0.00 0.00 0.00 56 1021.7
20220626155413 86 156 6.0 9.0 0.00 0.00 0.00 58 1021.9
20220626154323 85 257 3.0 4.0 0.00 0.00 0.00 60 1021.9
20220626153351 84 95 2.0 4.0 0.00 0.00 0.00 62 1021.9
20220626152420 84 254 0.0 3.0 0.00 0.00 0.00 64 1021.9
20220626151348 83 301 2.0 4.0 0.00 0.00 0.00 67 1021.9
20220626150410 83 313 2.0 7.0 0.00 0.00 0.00 66 1022.0
20220626145349 83 238 2.0 7.0 0.00 0.00 0.00 66 1022.1
20220626144403 83 245 2.0 8.0 0.00 0.00 0.00 66 1022.1
20220626142349 82 319 1.0 6.0 0.00 0.00 0.00 70 1021.9
20220626141401 81 107 2.0 6.0 0.00 0.00 0.00 74 1021.7
20220626140333 80 109 3.0 4.0 0.00 0.00 0.00 76 1021.7
20220626133350 80 9 0.0 2.0 0.00 0.00 0.00 77 1021.3
20220626132412 79 66 1.0 2.0 0.00 0.00 0.00 79 1021.2
20220626131334 77 74 0.0 0.0 0.00 0.00 0.00 82 1021.3
20220626130417 76 74 0.0 2.0 0.00 0.00 0.00 82 1021.2
20220626125344 74 191 0.0 1.0 0.00 0.00 0.00 85 1021.2
20220626124407 73 191 0.0 0.0 0.00 0.00 0.00 88 1021.2
20220626123336 71 191 0.0 0.0 0.00 0.00 0.00 90 1021.2
20220626122337 70 191 0.0 0.0 0.00 0.00 0.00 91 1021.0
20220626121401 69 191 0.0 0.0 0.00 0.00 0.00 92 1021.0
20220626120326 68 191 0.0 0.0 0.00 0.00 0.00 91 1020.8
20220626113329 68 191 0.0 0.0 0.00 0.00 0.00 91 1020.6
20220626112348 69 191 0.0 0.0 0.00 0.00 0.00 91 1020.6
20220626111416 69 191 0.0 0.0 0.00 0.00 0.00 91 1020.5
20220626110335 69 191 0.0 0.0 0.00 0.00 0.00 91 1020.6
20220626105406 69 191 0.0 0.0 0.00 0.00 0.00 90 1020.5
20220626104336 69 191 0.0 0.0 0.00 0.00 0.00 90 1020.4
20220626103409 70 191 0.0 0.0 0.00 0.00 0.00 90 1020.5
20220626102325 70 191 0.0 0.0 0.00 0.00 0.00 90 1020.5
20220626100349 70 191 0.0 0.0 0.00 0.00 0.00 89 1020.3
20220626095417 71 191 0.0 1.0 0.00 0.00 0.00 89 1020.3
20220626094349 71 191 0.0 0.0 0.00 0.00 0.00 88 1020.2
20220626093404 71 191 0.0 0.0 0.00 0.00 0.00 87 1020.3
20220626092336 72 191 0.0 0.0 0.00 0.00 0.00 87 1020.3
20220626091353 72 191 0.0 0.0 0.00 0.00 0.00 87 1020.1
20220626090328 73 191 0.0 0.0 0.00 0.00 0.00 86 1020.1
20220626085353 73 191 0.0 0.0 0.00 0.00 0.00 85 1020.0
20220626084409 74 191 0.0 0.0 0.00 0.00 0.00 84 1020.1
20220626083337 74 191 0.0 0.0 0.00 0.00 0.00 84 1020.2
20220626082353 75 191 0.0 1.0 0.00 0.00 0.00 84 1020.2
20220626081422 75 191 1.0 2.0 0.00 0.00 0.00 83 1020.2
20220626080347 75 207 2.0 3.0 0.00 0.00 0.00 83 1020.2
20220626075415 76 185 1.0 4.0 0.00 0.00 0.00 81 1020.3
20220626074328 76 232 2.0 6.0 0.00 0.00 0.00 81 1020.1
20220626072350 76 207 3.0 9.0 0.00 0.00 0.00 79 1020.1
20220626071413 77 212 4.0 8.0 0.00 0.00 0.00 78 1020.1
20220626070349 77 155 3.0 10.0 0.00 0.00 0.00 76 1020.0
20220626065342 77 239 6.0 7.0 0.00 0.00 0.00 75 1020.2
20220626064330 78 150 5.0 9.0 0.00 0.00 0.00 74 1020.0
20220626063347 78 146 5.0 9.0 0.00 0.00 0.00 72 1019.9